Location: Newark
(44.6028°N, 124.0883°W)
Time: 05:35:43
(UTC+00:00)

SR - All Passes

Search period start: 21 October 2019 00:00
Search period end: 31 October 2019 00:00
Orbit: 575 x 881 km, 66.7° (Epoch: 19 October)

Date Brightness Start Highest point End Pass type
(mag) Time Alt. Az. Time Alt. Az. Time Alt. Az.
21 Oct - 05:54:28 10° SSW 05:59:21 61° ESE 06:04:44 10° NE night (unlit)
21 Oct - 07:37:37 10° W 07:41:55 26° NW 07:46:32 10° NNE night (unlit)
21 Oct - 12:52:01 10° N 12:56:02 19° NE 13:00:05 10° ENE visible
21 Oct - 14:33:17 10° NNW 14:39:12 71° NE 14:45:06 10° SE daylight
21 Oct - 16:16:27 10° WNW 16:20:47 21° WSW 16:25:05 10° SSW daylight
22 Oct - 05:05:37 10° S 05:09:57 31° ESE 05:14:39 10° NE night (unlit)
22 Oct - 06:47:04 10° WSW 06:51:53 42° NW 06:57:09 10° NNE night (unlit)
22 Oct - 08:33:27 10° NW 08:35:36 12° NNW 08:37:48 10° N visible
22 Oct - 12:03:03 10° N 12:05:39 13° NNE 12:08:15 10° NE visible
22 Oct - 13:43:45 10° NNW 13:49:21 42° NE 13:54:57 10° ESE visible
22 Oct - 15:26:02 10° NW 15:31:29 39° WSW 15:36:52 10° S daylight
23 Oct - 04:17:48 10° SE 04:20:46 16° ESE 04:23:51 10° ENE night (unlit)
23 Oct - 05:57:02 10° SW 06:02:03 76° WNW 06:07:35 10° NNE night (unlit)
23 Oct - 07:41:39 10° WNW 07:45:12 18° NW 07:48:55 10° N night (unlit)
23 Oct - 12:54:23 10° NNW 12:59:19 27° NE 13:04:15 10° E visible
23 Oct - 14:36:04 10° NW 14:41:59 71° WSW 14:47:49 10° SSE daylight
23 Oct - 16:21:18 10° W 16:23:05 11° W 16:24:52 10° WSW daylight
24 Oct - 05:07:34 10° SSW 05:12:27 58° ESE 05:17:49 10° NE night (unlit)
24 Oct - 06:50:35 10° W 06:54:58 27° NW 06:59:41 10° NNE night (unlit)
24 Oct - 12:05:09 10° N 12:09:04 18° NE 12:13:01 10° ENE visible
24 Oct - 13:46:23 10° NNW 13:52:18 68° NE 13:58:10 10° SE visible
24 Oct - 15:29:27 10° WNW 15:33:55 23° WSW 15:38:21 10° SSW daylight
25 Oct - 04:18:47 10° S 04:23:04 30° ESE 04:27:43 10° NE night (unlit)
25 Oct - 06:00:04 10° WSW 06:04:57 44° NW 06:10:17 10° NNE night (unlit)
25 Oct - 07:46:16 10° NW 07:48:37 13° NNW 07:51:03 10° N night (unlit)
25 Oct - 11:16:13 10° N 11:18:39 13° NNE 11:21:07 10° NE visible
25 Oct - 12:56:53 10° NNW 13:02:26 40° NE 13:07:58 10° ESE visible
25 Oct - 14:39:05 10° NW 14:44:36 41° WSW 14:50:02 10° S daylight
26 Oct - 03:31:06 10° SE 03:33:53 15° ESE 03:36:49 10° ENE night (unlit)
26 Oct - 05:10:05 10° SW 05:15:08 80° WNW 05:20:42 10° NNE night (unlit)
26 Oct - 06:54:33 10° WNW 06:58:13 18° NW 07:02:05 10° N night (unlit)
26 Oct - 12:07:30 10° NNW 12:12:22 26° NE 12:17:15 10° E visible
26 Oct - 13:49:10 10° NW 13:55:06 75° WSW 14:00:56 10° SSE visible
26 Oct - 15:34:01 10° W 15:36:14 12° W 15:38:26 10° WSW daylight
27 Oct - 04:20:40 10° SSW 04:25:33 55° ESE 04:30:55 10° NE night (unlit)
27 Oct - 06:03:32 10° WSW 06:08:01 28° NW 06:12:50 10° NNE night (unlit)
27 Oct - 11:18:17 10° N 11:22:07 17° NNE 11:25:58 10° ENE visible
27 Oct - 12:59:29 10° NNW 13:05:24 65° NE 13:11:14 10° SE visible
27 Oct - 14:42:28 10° NW 14:47:03 24° WSW 14:51:36 10° SSW daylight
28 Oct - 03:31:56 10° SSE 03:36:11 28° ESE 03:40:45 10° NE night (unlit)
28 Oct - 05:13:03 10° SW 05:18:00 47° NW 05:23:24 10° NNE night (unlit)
28 Oct - 06:59:05 10° NW 07:01:38 13° NNW 07:04:16 10° N night (unlit)
28 Oct - 10:29:23 10° N 10:31:41 12° NNE 10:33:59 10° NE visible
28 Oct - 12:10:00 10° NNW 12:15:30 39° NE 12:20:59 10° ESE visible
28 Oct - 13:52:09 10° NW 13:57:44 43° WSW 14:03:12 10° S visible
29 Oct - 02:44:24 10° SE 02:47:01 14° ESE 02:49:44 10° ENE visible
29 Oct - 04:23:08 10° SSW 04:28:13 84° WNW 04:33:48 10° NNE visible
29 Oct - 06:07:28 10° W 06:11:15 19° NW 06:15:15 10° N night (unlit)
29 Oct - 11:20:38 10° NNW 11:25:26 25° NE 11:30:13 10° E visible
29 Oct - 13:02:15 10° NW 13:08:12 78° WSW 13:14:03 10° SSE visible
29 Oct - 14:46:48 10° WNW 14:49:22 13° WSW 14:51:54 10° SW daylight
30 Oct - 03:33:46 10° S 03:38:39 52° ESE 03:44:00 10° NE visible
30 Oct - 05:16:30 10° WSW 05:21:04 30° NW 05:25:58 10° NNE visible
30 Oct - 10:31:26 10° N 10:35:09 17° NNE 10:38:53 10° ENE visible
30 Oct - 12:12:35 10° NNW 12:18:29 61° NE 12:24:18 10° SE visible
30 Oct - 13:55:29 10° NW 14:00:12 25° WSW 14:04:50 10° SSW visible
